Weather History for Rawlins, WY

Change the Weather History Date:

Tuesday, March 5, 2013

  Actual Average Record
Temperature  
Mean Temperature 25 °F 29 °F  
Max Temperature 39 °F 40 °F 61 °F (2000)
Min Temperature 10 °F 18 °F -8 °F (1963)
Degree Days  
Heating Degree Days 40 36  
Month to date heating degree days 175 183  
Since 1 July heating degree days 5776 6140  
Cooling Degree Days 0 0  
Month to date cooling degree days 0 0  
Year to date cooling degree days 0 0  
Moisture  
Dew Point 5 °F    
Average Humidity 49    
Maximum Humidity 73    
Minimum Humidity 24    
Precipitation  
Precipitation 0.00 in 0.02 in 0.11 in (1964)
Month to date precipitation 0.01 0.09  
Year to date precipitation 0.59 0.87  
Sea Level Pressure  
Sea Level Pressure 30.24 in    
Wind  
Wind Speed 12 mph (SW)    
Max Wind Speed 29 mph    
Max Gust Speed 36 mph    
Visibility 10 miles    
Events      
T = Trace of Precipitation, MM = Missing Value Source: NWS Daily Summary

Daily Weather History Graph

Daily Weather History Graph

Search for Another Location

Airport:

Trip Planner

Search our weather history database for the weather conditions in past years. The results will help you decide how hot, cold, wet, or windy it might be!

Date:

Astronomy

Mar. 05, 2013 Rise Set
Actual Time 6:36 AM MST 6:04 PM MST
Civil Twilight 6:08 AM MST 6:32 PM MST
Nautical Twilight 5:36 AM MST 7:04 PM MST
Astronomical Twilight 5:04 AM MST 7:36 PM MST
Moon 1:55 AM MST (3/5) 11:42 AM MST (3/5)
Length of Visible Light 12h 23m
Length of Day
11h 27m
Last Quarter, 40% of the Moon is Illuminated
Mar 5
Last Quarter
Mar 11
New
Mar 19
First Quarter
Mar 27
Full
Apr 2
Last Quarter

Hourly Weather History & Observations

Time (MST) Temp. Windchill Dew Point Humidity Pressure Visibility Wind Dir Wind Speed Gust Speed Precip Events Conditions
12:53 AM 10.0 °F - 3.9 °F 76% 30.35 in 10.0 mi Calm Calm - N/A   Clear
1:53 AM 16.0 °F 1.1 °F 8.1 °F 71% 30.34 in 10.0 mi WSW 15.0 mph - N/A   Clear
2:53 AM 16.0 °F 1.1 °F 7.0 °F 68% 30.33 in 10.0 mi WSW 15.0 mph - N/A   Clear
3:53 AM 15.1 °F 1.1 °F 6.1 °F 68% 30.34 in 10.0 mi WSW 12.7 mph - N/A   Clear
6:53 AM 15.1 °F 3.3 °F 5.0 °F 64% 30.39 in 10.0 mi WSW 9.2 mph - N/A   Clear
7:53 AM 21.0 °F - 7.0 °F 55% 30.38 in 10.0 mi Calm Calm - N/A   Clear
8:53 AM 27.0 °F 21.6 °F 5.0 °F 39% 30.38 in 10.0 mi Variable 4.6 mph - N/A   Clear
9:53 AM 30.9 °F 19.8 °F 3.9 °F 32% 30.32 in 10.0 mi South 16.1 mph 24.2 mph N/A   Clear
10:53 AM 32.0 °F 20.8 °F 7.0 °F 35% 30.32 in 10.0 mi South 17.3 mph 27.6 mph N/A   Clear
11:53 AM 36.0 °F 26.3 °F 5.0 °F 27% 30.26 in 10.0 mi SSW 16.1 mph 21.9 mph N/A   Clear
12:53 PM 37.0 °F 28.9 °F 5.0 °F 26% 30.27 in 10.0 mi West 12.7 mph 24.2 mph N/A   Clear
1:53 PM 39.0 °F 29.9 °F 7.0 °F 27% 30.19 in 10.0 mi WSW 17.3 mph - N/A   Clear
2:53 PM 37.0 °F 26.2 °F 3.9 °F 25% 30.19 in 10.0 mi SSW 21.9 mph 29.9 mph N/A   Clear
3:53 PM 37.0 °F 27.4 °F 3.0 °F 24% 30.19 in 10.0 mi SSW 17.3 mph - N/A   Clear
4:53 PM 35.1 °F 26.4 °F 5.0 °F 28% 30.19 in 10.0 mi SW 12.7 mph 26.5 mph N/A   Clear
5:53 PM 34.0 °F 26.0 °F 3.0 °F 27% 30.19 in 10.0 mi SW 10.4 mph - N/A   Clear
6:53 PM 33.1 °F 24.9 °F 5.0 °F 31% 30.17 in 10.0 mi SW 10.4 mph - N/A   Clear
7:53 PM 35.1 °F 24.8 °F 5.0 °F 28% 30.11 in 10.0 mi SW 17.3 mph - N/A   Clear
8:53 PM 34.0 °F 25.0 °F 3.9 °F 28% 30.10 in 10.0 mi WSW 12.7 mph - N/A   Clear
9:53 PM 28.9 °F 22.8 °F 7.0 °F 40% 30.11 in 10.0 mi SSW 5.8 mph - N/A   Clear
10:53 PM 30.0 °F 24.1 °F 5.0 °F 35% 30.09 in 10.0 mi SW 5.8 mph - N/A   Clear
11:53 PM 30.9 °F 21.2 °F 8.1 °F 38% 30.04 in 10.0 mi SW 12.7 mph - N/A   Clear